TimePDT,TemperatureF,Dew PointF,Humidity,Sea Level PressureIn,VisibilityMPH,Wind Direction,Wind SpeedMPH,Gust SpeedMPH,PrecipitationIn,Events,Conditions,WindDirDegrees,DateUTC
12:53 AM,68.0,30.0,24,29.83,10.0,Calm,Calm,-,N/A,,Clear,0,2013-03-26 07:53:00
1:53 AM,63.0,34.0,34,29.83,10.0,Calm,Calm,-,N/A,,Clear,0,2013-03-26 08:53:00
2:53 AM,64.0,37.9,38,29.81,10.0,Calm,Calm,-,N/A,,Clear,0,2013-03-26 09:53:00
3:53 AM,63.0,36.0,37,29.81,10.0,ESE,3.5,-,N/A,,Clear,110,2013-03-26 10:53:00
4:53 AM,61.0,35.1,38,29.81,10.0,SSE,5.8,-,N/A,,Clear,160,2013-03-26 11:53:00
5:53 AM,61.0,34.0,36,29.82,10.0,Calm,Calm,-,N/A,,Clear,0,2013-03-26 12:53:00
6:53 AM,59.0,39.9,49,29.83,10.0,Calm,Calm,-,N/A,,Clear,0,2013-03-26 13:53:00
7:53 AM,64.0,36.0,35,29.84,10.0,Calm,Calm,-,N/A,,Clear,0,2013-03-26 14:53:00
8:53 AM,71.1,36.0,28,29.84,10.0,South,6.9,-,N/A,,Clear,180,2013-03-26 15:53:00
9:53 AM,75.9,39.9,27,29.86,10.0,ESE,3.5,-,N/A,,Clear,120,2013-03-26 16:53:00
10:53 AM,80.1,37.0,21,29.86,10.0,ENE,5.8,-,N/A,,Clear,60,2013-03-26 17:53:00
11:53 AM,82.9,36.0,19,29.84,10.0,Calm,Calm,-,N/A,,Clear,0,2013-03-26 18:53:00
12:53 PM,84.9,36.0,17,29.83,10.0,East,4.6,-,N/A,,Clear,90,2013-03-26 19:53:00
1:53 PM,86.0,33.1,15,29.80,10.0,ESE,10.4,-,N/A,,Clear,120,2013-03-26 20:53:00
2:53 PM,87.1,33.1,15,29.77,10.0,ESE,8.1,-,N/A,,Clear,120,2013-03-26 21:53:00
3:53 PM,89.1,33.1,14,29.74,10.0,ESE,10.4,-,N/A,,Clear,120,2013-03-26 22:53:00
4:53 PM,88.0,34.0,15,29.73,10.0,SSE,8.1,-,N/A,,Clear,160,2013-03-26 23:53:00
5:53 PM,86.0,26.1,11,29.74,10.0,SW,9.2,20.7,N/A,,Clear,230,2013-03-27 00:53:00
6:53 PM,79.0,28.9,16,29.74,10.0,West,18.4,26.5,N/A,,Clear,260,2013-03-27 01:53:00
7:53 PM,75.0,32.0,21,29.76,10.0,West,17.3,-,N/A,,Clear,260,2013-03-27 02:53:00
8:53 PM,70.0,32.0,25,29.79,10.0,West,10.4,-,N/A,,Clear,270,2013-03-27 03:53:00
9:53 PM,72.0,28.0,20,29.81,10.0,West,16.1,-,N/A,,Clear,260,2013-03-27 04:53:00
10:53 PM,69.1,28.9,22,29.81,10.0,West,11.5,-,N/A,,Clear,270,2013-03-27 05:53:00
11:53 PM,68.0,24.1,19,29.81,10.0,West,12.7,-,N/A,,Clear,260,2013-03-27 06:53:00